Date String (YYYY-MM-DD hh:mm:ss) UTC,Instrument flags,Ambient pressure (hPa),Sample flow (lpm),Bypass flow (lpm),Sample temperature (°C),Ambient temperature (°C),ASC tube jacket temperature (°C),LED temperature (°C),Box temperature (°C),Sample RH (%),Span deviation,Mass concentration (μg/m³),Mass concentration (μg/m³),Mass concentration (μg/m³)
DateTimeUTC,F1_M11,P_M11,Q1_M11,Q2_M11,T1_M11,T2_M11,T3_M11,T4_M11,T5_M11,U1_M11,ZSPAN_M11,X0_M11,X2_M11,X1_M11
2022-09-03 15:00:00,,0835.3,5.01,0.00,30.1,28.4,00.0,38.8,31.8,21.0,0000.0,0017.32,0007.16,0006.14
2022-09-03 15:01:00,,0835.3,4.99,0.00,30.1,28.5,00.0,38.8,31.9,20.8,0000.0,0018.47,0007.12,0006.06
2022-09-03 15:02:00,,0835.4,5.01,0.00,30.1,28.7,00.0,38.8,31.9,21.0,0000.0,0017.29,0007.09,0006.01
2022-09-03 15:03:00,,0835.4,5.00,0.00,30.1,28.8,00.0,38.8,31.9,21.0,0000.0,0016.03,0007.11,0006.00
2022-09-03 15:04:00,,0835.4,4.98,0.00,30.1,28.9,00.0,38.8,32.0,20.9,0000.0,0015.89,0007.11,0006.01
2022-09-03 15:05:00,,0835.4,5.01,0.00,30.1,29.0,00.0,38.9,32.0,20.9,0000.0,0016.37,0007.09,0006.02
2022-09-03 15:06:00,,0835.4,4.99,0.00,30.2,29.0,00.0,38.9,32.0,21.0,0000.0,0015.96,0007.10,0006.04
2022-09-03 15:07:00,,0835.3,5.01,0.00,30.2,29.1,00.0,38.9,32.0,21.2,0000.0,0016.00,0007.16,0006.09
2022-09-03 15:08:00,,0835.4,4.99,0.00,30.2,29.2,00.0,38.9,32.1,21.5,0000.0,0016.05,0007.25,0006.13
2022-09-03 15:09:00,,0835.3,5.01,0.00,30.2,29.2,00.0,38.9,32.1,21.7,0000.0,0016.08,0007.32,0006.16
2022-09-03 15:10:00,,0835.4,5.00,0.00,30.3,28.4,00.0,38.9,32.1,21.7,0000.0,0016.45,0007.45,0006.22
2022-09-03 15:11:00,,0835.4,4.99,0.00,30.2,27.2,00.0,38.9,31.9,21.6,0000.0,0016.12,0007.52,0006.26
2022-09-03 15:12:00,,0835.4,5.00,0.00,30.2,27.0,00.0,38.9,31.9,21.6,0000.0,0014.59,0007.50,0006.31
2022-09-03 15:13:00,,0835.5,5.00,0.00,30.1,27.3,00.0,38.8,31.8,21.8,0000.0,0015.00,0007.53,0006.36
2022-09-03 15:14:00,,0835.5,5.00,0.00,30.1,27.6,00.0,38.8,31.8,22.0,0000.0,0015.27,0007.56,0006.39
2022-09-03 15:15:00,,0835.5,5.00,0.00,30.0,27.9,00.0,38.8,31.7,22.6,0000.0,0015.99,0007.61,0006.43
2022-09-03 15:16:00,,0835.5,5.01,0.00,30.0,28.1,00.0,38.8,31.7,23.4,0000.0,0015.89,0007.74,0006.49
2022-09-03 15:17:00,,0835.5,5.00,0.00,30.0,28.4,00.0,38.8,31.8,23.0,0000.0,0016.24,0007.83,0006.54
2022-09-03 15:18:00,,0835.5,4.98,0.00,30.0,28.5,00.0,38.8,31.8,23.1,0000.0,0016.42,0007.85,0006.59
2022-09-03 15:19:00,,0835.5,5.01,0.00,30.0,28.7,00.0,38.8,31.9,23.0,0000.0,0017.36,0007.93,0006.62
2022-09-03 15:20:00,,0835.5,5.01,0.00,30.1,28.8,00.0,38.8,31.9,23.1,0000.0,0018.44,0008.01,0006.66
2022-09-03 15:21:00,,0835.4,4.99,0.00,30.1,28.9,00.0,38.8,32.0,22.8,0000.0,0018.47,0008.05,0006.68
2022-09-03 15:22:00,,0835.5,5.01,0.00,30.1,29.0,00.0,38.8,32.0,23.0,0000.0,0018.46,0008.13,0006.74
2022-09-03 15:23:00,,0835.4,5.00,0.00,30.1,29.1,00.0,38.9,32.0,22.9,0000.0,0018.75,0008.29,0006.79
2022-09-03 15:24:00,,0835.5,4.99,0.00,30.2,29.1,00.0,38.9,32.0,23.2,0000.0,0018.78,0008.38,0006.86
2022-09-03 15:25:00,,0835.4,5.00,0.00,30.2,29.2,00.0,38.9,32.1,23.8,0000.0,0019.01,0008.44,0006.92
2022-09-03 15:26:00,,0835.5,4.99,0.00,30.2,28.4,00.0,38.9,32.1,24.7,0000.0,0019.17,0008.55,0007.00
2022-09-03 15:27:00,,0835.4,5.01,0.00,30.2,27.2,00.0,38.9,31.9,24.7,0000.0,0019.32,0008.61,0007.08
2022-09-03 15:28:00,,0835.4,5.00,0.00,30.1,27.0,00.0,38.8,31.9,25.3,0000.0,0018.56,0008.70,0007.14
2022-09-03 15:29:00,,0835.4,5.00,0.00,30.1,27.2,00.0,38.8,31.8,25.4,0000.0,0018.45,0008.78,0007.19
2022-09-03 15:30:00,,0835.5,5.00,0.00,30.0,27.6,00.0,38.8,31.8,25.5,0001.7,0018.51,0008.81,0007.23
2022-09-03 15:31:00,,0835.5,5.00,0.00,30.0,27.9,00.0,38.7,31.7,25.6,0001.4,0017.95,0008.86,0007.28
2022-09-03 15:32:00,,0835.5,5.00,0.00,30.0,28.1,00.0,38.7,31.7,25.9,0000.9,0017.84,0008.91,0007.33
2022-09-03 15:33:00,,0835.5,5.00,0.00,30.0,28.3,00.0,38.7,31.8,25.9,0001.1,0018.54,0008.95,0007.39
2022-09-03 15:34:00,,0835.5,4.98,0.00,30.0,28.5,00.0,38.7,31.8,25.1,0001.2,0018.56,0008.96,0007.43
2022-09-03 15:35:00,,0835.4,5.01,0.00,30.0,28.7,00.0,38.8,31.9,25.8,0003.0,0018.63,0009.01,0007.46
2022-09-03 15:36:00,,0835.5,5.01,0.00,30.0,28.8,00.0,38.8,31.9,25.5,0002.4,0018.76,0009.05,0007.49
2022-09-03 15:37:00,,0835.5,4.99,0.00,30.1,28.9,00.0,38.8,31.9,25.4,0000.6,0019.06,0009.14,0007.53
2022-09-03 15:38:00,,0835.5,5.01,0.00,30.1,29.0,00.0,38.8,32.0,25.2,0000.0,0018.90,0009.12,0007.53
2022-09-03 15:39:00,,0835.5,4.99,0.00,30.1,29.1,00.0,38.8,32.0,25.2,0000.0,0020.17,0009.12,0007.53
2022-09-03 15:40:00,,0835.5,5.02,0.00,30.2,29.1,00.0,38.8,32.0,25.2,0000.0,0021.81,0009.14,0007.53
2022-09-03 15:41:00,,0835.5,4.99,0.00,30.2,28.3,00.0,38.8,32.0,25.0,0000.0,0021.94,0009.17,0007.52
2022-09-03 15:42:00,,0835.4,5.00,0.00,30.1,27.1,00.0,38.8,31.9,24.9,0000.0,0021.97,0009.20,0007.52
2022-09-03 15:43:00,,0835.5,5.00,0.00,30.1,27.0,00.0,38.8,31.9,24.9,0000.0,0022.34,0009.18,0007.53
2022-09-03 15:44:00,,0835.4,5.00,0.00,30.0,27.3,00.0,38.7,31.8,24.8,0000.0,0023.01,0009.18,0007.52
2022-09-03 15:45:00,,0835.4,4.99,0.00,30.0,27.6,00.0,38.7,31.7,24.8,0000.0,0024.01,0009.18,0007.51
2022-09-03 15:46:00,,0835.5,5.00,0.00,30.0,27.9,00.0,38.7,31.7,25.0,0000.0,0023.51,0009.16,0007.51
2022-09-03 15:47:00,,0835.4,5.01,0.00,30.0,28.1,00.0,38.7,31.7,25.0,0000.0,0023.28,0009.16,0007.51
2022-09-03 15:48:00,,0835.4,5.00,0.00,30.0,28.4,00.0,38.7,31.7,25.1,0000.9,0023.46,0009.12,0007.49
2022-09-03 15:49:00,,0835.5,4.98,0.00,30.0,28.5,00.0,38.7,31.8,25.2,0001.6,0023.66,0009.13,0007.48
2022-09-03 15:50:00,,0835.5,5.00,0.00,30.0,28.6,00.0,38.7,31.8,25.1,0001.7,0022.57,0009.18,0007.47
2022-09-03 15:51:00,,0835.5,5.01,0.00,30.0,28.8,00.0,38.7,31.9,25.0,0002.3,0021.51,0009.20,0007.46
2022-09-03 15:52:00,,0835.5,4.98,0.00,30.0,28.9,00.0,38.7,31.9,24.5,0002.7,0022.73,0009.19,0007.45
2022-09-03 15:53:00,,0835.5,5.01,0.00,30.1,29.0,00.0,38.8,32.0,24.1,0002.7,0023.02,0009.15,0007.43
2022-09-03 15:54:00,,0835.4,5.00,0.00,30.1,28.6,00.0,38.8,32.0,24.4,0003.0,0023.06,0009.08,0007.40
2022-09-03 15:55:00,,0835.5,4.98,0.00,30.1,27.4,00.0,38.8,31.8,24.4,0003.1,0022.59,0009.02,0007.38
2022-09-03 15:56:00,,0835.5,5.00,0.00,30.0,26.8,00.0,38.7,31.8,24.6,0003.1,0022.22,0008.97,0007.38
2022-09-03 15:57:00,,0835.5,5.01,0.00,30.0,27.0,00.0,38.7,31.7,24.6,0002.8,0022.81,0008.94,0007.36
2022-09-03 15:58:00,,0835.5,5.00,0.00,29.9,27.4,00.0,38.6,31.6,24.8,0001.5,0023.74,0008.95,0007.35
2022-09-03 15:59:00,,0835.5,5.01,0.00,29.9,27.7,00.0,38.6,31.6,24.7,0000.0,0024.38,0009.00,0007.35
